ヒル彗星

369P/Hill (2018)

English version
Home page
Updated on March 28, 2019

---------------------------------------------------------------------

・ プロフィール

符号 369P/2018 P1
検出日 2018年8月10日
検出光度 19.0等
検出者 E. Schwab (Egelsbach, Germany), P. Ruiz (European Space Agency's Optical Ground Station, Tenerife, Spain)

・ 写真集

・ 軌道要素

Epoch 2018 Oct. 9.0 TT = JDT 2458400.5
T 2018 Oct. 15.15907 TT                                 MPCW
q   1.9571781            (2000.0)            P               Q
n   0.10712737     Peri.   13.28370     +0.49355692     -0.85970649
a   4.3907202      Node    47.32113     +0.78069911     +0.37128244
e   0.5542467      Incl.   10.30827     +0.38328902     +0.35079068
P   9.20
From 150 observations 2010 Jan. 6-2018 Aug. 12, mean residual 0".6.

・ 星図

・ 光度変化

        m1 = 14.0 + 5 logΔ + 10.0 log r

---------------------------------------------------------------------

軌道要素はM.P.E.C. 2018-P80に掲載されたものです。
星図はステラナビゲータ Ver.10 (アストロアーツ) で作成したものです。
光度グラフはComet for Windowsで作成したものです。

---------------------------------------------------------------------

Copyright(C) Seiichi Yoshida (comet@aerith.net). All rights reserved.